AEROCUBE 7

Last updated on Wed Nov 05 2025 00:03:48 GMT+0000 (Coordinated Universal Time)

1 40966U 15058C 25308.15559906 .00004458 00000+0 36950-3 0 9998 2 40966 64.7630 228.5242 0133669 150.2485 210.6317 14.93391851332328
UTC large
Height (km)
Speed (km/s)
/
Latitude / Longitude
Inclination (degrees)
Orbital Period (minutes)
Azimuth
Elevation
Range (km)
Doppler Factor

Next 0 passes for location: London (51.5072 / 0.1276)

Sorry there are no passes over London.